Location: Molino di Ancona
(43.6167°N, 13.3667°E)
Time: 09:16:25
(UTC+00:00)

USA 234 - Pass Details

Date: 15 December 2019
Orbit: 1099 x 1108 km, 123.0° (Epoch: 20 January)

Event Time Altitude Azimuth Distance (km) Brightness Sun altitude
Rises 02:52:32 0° 54° (NE) 3,924 6.8 -38.8°
Reaches altitude 10° 02:55:13 10° 62° (ENE) 2,964 6.1 -38.3°
Maximum altitude 03:01:16 39° 129° (SE) 1,598 4.3 -37.2°
Enters shadow 03:02:08 37° 147° (SSE) 1,637 4.2 -37.1°
